Rocky Mount, NC

4:04 PM EDT on May 23, 2017 (GMT -0400)
Rocky Mount-Wilson Regional

Weather History for KRWI - June, 2013

Change the Weather History Date:

Saturday, June 29, 2013

  Actual Average Record
Temperature  
Mean Temperature 78 °F -  
Max Temperature 87 °F 88 °F 105 °F (2012)
Min Temperature 69 °F 64 °F 51 °F (1967)
Cooling Degree Days 13    
Growing Degree Days 28 (Base 50)    
Moisture  
Dew Point 70 °F    
Average Humidity 85    
Maximum Humidity 96    
Minimum Humidity 59    
Precipitation  
Precipitation 0.73 in - - ()
Sea Level Pressure  
Sea Level Pressure 29.67 in    
Wind  
Wind Speed 4 mph (SSW)    
Max Wind Speed 12 mph    
Max Gust Speed 23 mph    
Visibility 9 miles    
Events Rain , Thunderstorm    
Averages and records for this station are not official NWS values.
T = Trace of Precipitation, MM = Missing Value Source: NWS Daily Summary

Daily Weather History Graph

Daily Weather History Graph

Search for Another Location

Airport or City:

Trip Planner

Search our weather history database for the weather conditions in past years. The results will help you decide how hot, cold, wet, or windy it might be!

Date:

Astronomy

Jun. 29, 2013 Rise Set
Actual Time 5:58 AM EDT 8:31 PM EDT
Civil Twilight 5:28 AM EDT 9:02 PM EDT
Nautical Twilight 4:50 AM EDT 9:39 PM EDT
Astronomical Twilight 4:09 AM EDT 10:20 PM EDT
Moon 12:13 AM EDT (6/29) 12:53 PM EDT (6/29)
Length of Visible Light 15h 33m
Length of Day
14h 33m
Waning Gibbous, 56% of the Moon is Illuminated
Jun 29
Waning Gibbous
Jun 30
Last Quarter
Jul 8
New
Jul 15
First Quarter
Jul 22
Full

Hourly Weather History & Observations

Time (EDT) Temp. Heat Index Dew Point Humidity Pressure Visibility Wind Dir Wind Speed Gust Speed Precip Events Conditions
12:10 AM 71.6 °F - 69.8 °F 94% 29.65 in 10.0 mi Calm Calm - 0.00 in Thunderstorm Thunderstorm
12:53 AM 73.0 °F - 70.0 °F 90% 29.64 in 10.0 mi WNW 6.9 mph - 0.01 in Thunderstorm Thunderstorm
1:12 AM 71.6 °F - 69.8 °F 94% 29.68 in 1.8 mi West 4.6 mph - 0.19 in Rain , Thunderstorm Heavy Thunderstorms and Rain
1:30 AM 69.8 °F - 68.0 °F 94% 29.72 in 1.2 mi SW 4.6 mph 23.0 mph 0.53 in Rain , Thunderstorm Heavy Thunderstorms and Rain
1:53 AM 69.1 °F - 68.0 °F 96% 29.67 in 4.0 mi Calm Calm - 0.64 in Rain , Thunderstorm Light Rain
2:00 AM 69.8 °F - 68.0 °F 94% 29.66 in 5.0 mi Calm Calm - 0.01 in Rain Light Rain
2:16 AM 69.8 °F - 68.0 °F 94% 29.63 in 4.0 mi Calm Calm - 0.04 in Rain , Thunderstorm Light Thunderstorms and Rain
2:50 AM 69.8 °F - 68.0 °F 94% 29.63 in 10.0 mi SSE 4.6 mph - 0.08 in Rain Light Rain
2:53 AM 69.1 °F - 68.0 °F 96% 29.63 in 10.0 mi SSE 4.6 mph - 0.08 in Rain Light Rain
3:03 AM 69.8 °F - 68.0 °F 94% 29.63 in 10.0 mi SSE 3.5 mph - 0.00 in   Scattered Clouds
3:53 AM 70.0 °F - 68.0 °F 93% 29.62 in 10.0 mi Calm Calm - 0.00 in   Clear
4:02 AM 69.8 °F - 66.2 °F 88% 29.63 in 10.0 mi Calm Calm - N/A   Scattered Clouds
4:10 AM 69.8 °F - 66.2 °F 88% 29.63 in 10.0 mi Calm Calm - N/A   Mostly Cloudy
4:53 AM 70.0 °F - 68.0 °F 93% 29.63 in 10.0 mi Calm Calm - N/A   Overcast
5:53 AM 70.0 °F - 68.0 °F 93% 29.64 in 10.0 mi Calm Calm - N/A   Mostly Cloudy
6:53 AM 71.1 °F - 69.1 °F 93% 29.65 in 10.0 mi South 3.5 mph - N/A   Scattered Clouds
7:53 AM 72.0 °F - 70.0 °F 93% 29.67 in 10.0 mi SSW 3.5 mph - N/A   Overcast
8:53 AM 73.9 °F - 70.0 °F 87% 29.68 in 10.0 mi WSW 4.6 mph - N/A   Overcast
9:53 AM 75.0 °F - 71.1 °F 87% 29.68 in 10.0 mi SSW 6.9 mph - N/A   Overcast
10:53 AM 78.1 °F - 72.0 °F 81% 29.68 in 10.0 mi SW 6.9 mph - N/A   Mostly Cloudy
11:34 AM 78.8 °F - 71.6 °F 78% 29.68 in 10.0 mi SSW 5.8 mph - N/A   Overcast
11:53 AM 79.0 °F - 73.0 °F 82% 29.68 in 10.0 mi SSW 6.9 mph - N/A   Mostly Cloudy
12:17 PM 80.6 °F 85.4 °F 73.4 °F 79% 29.69 in 10.0 mi SSW 9.2 mph - N/A   Mostly Cloudy
12:28 PM 80.6 °F 85.4 °F 73.4 °F 79% 29.69 in 10.0 mi SW 6.9 mph - N/A   Scattered Clouds
12:53 PM 82.0 °F 87.4 °F 73.0 °F 74% 29.68 in 10.0 mi SW 5.8 mph - N/A   Scattered Clouds
1:53 PM 84.0 °F 90.2 °F 73.0 °F 69% 29.68 in 10.0 mi South 6.9 mph - N/A   Mostly Cloudy
2:53 PM 84.9 °F 91.4 °F 73.0 °F 67% 29.67 in 10.0 mi SW 10.4 mph - N/A   Scattered Clouds
3:53 PM 86.0 °F 91.5 °F 71.1 °F 61% 29.67 in 10.0 mi SW 9.2 mph - N/A   Partly Cloudy
4:53 PM 87.1 °F 92.8 °F 71.1 °F 59% 29.66 in 10.0 mi SSW 8.1 mph - N/A   Clear
5:53 PM 84.0 °F 91.9 °F 75.0 °F 74% 29.67 in 10.0 mi SSE 5.8 mph - N/A   Scattered Clouds
6:53 PM 82.9 °F 89.4 °F 73.9 °F 74% 29.68 in 10.0 mi South 6.9 mph - N/A   Partly Cloudy
7:53 PM 81.0 °F 85.2 °F 72.0 °F 74% 29.69 in 10.0 mi South 5.8 mph - N/A   Partly Cloudy
8:53 PM 79.0 °F - 71.1 °F 77% 29.72 in 10.0 mi South 11.5 mph - N/A   Clear
9:53 PM 77.0 °F - 72.0 °F 84% 29.73 in 10.0 mi South 4.6 mph - N/A   Clear
10:53 PM 75.9 °F - 73.0 °F 91% 29.74 in 10.0 mi South 4.6 mph - N/A   Clear
11:53 PM 75.9 °F - 73.0 °F 91% 29.76 in 10.0 mi South 6.9 mph - N/A   Partly Cloudy